• In Hungary
  • List of Countries
  • For 7 days
  • Water Temperature
  • Satellite Maps
  • Weather Map
  • News
  • Weather Widgets
  • user-avatar
    Login

    Hourly Weather Stadnytsya

    Today, 20 October, Friday

    Time Temperature Precipitation Wind Pressure Humidity
    00:00 +14°C° 0 mm 2 mps 740 mmHg 79%
    01:00 +13°C° 0 mm 2 mps 740 mmHg 82%
    02:00 +12°C° 0 mm 2 mps 740 mmHg 88%
    03:00 +12°C° 0 mm 2 mps 740 mmHg 90%
    04:00 +12°C° 0 mm 2 mps 740 mmHg 92%
    05:00 +10°C° 0 mm 2 mps 740 mmHg 93%
    06:00 +11°C° 0 mm 3 mps 740 mmHg 91%
    07:00 +11°C° 0 mm 3 mps 741 mmHg 89%
    08:00 +11°C° 0 mm 3 mps 741 mmHg 87%
    09:00 +13°C° 0 mm 3 mps 741 mmHg 80%
    10:00 +14°C° 0 mm 3 mps 741 mmHg 73%
    11:00 +17°C° 0 mm 3 mps 742 mmHg 66%
    12:00 +17°C° 0 mm 3 mps 742 mmHg 65%
    13:00 +18°C° 0 mm 3 mps 742 mmHg 63%
    14:00 +18°C° 0 mm 3 mps 742 mmHg 61%
    15:00 +17°C° 0 mm 3 mps 742 mmHg 65%
    16:00 +16°C° 0 mm 3 mps 741 mmHg 69%
    17:00 +14°C° 0 mm 3 mps 741 mmHg 73%
    18:00 +14°C° 0 mm 2 mps 742 mmHg 75%
    19:00 +13°C° 0 mm 2 mps 742 mmHg 78%
    20:00 +12°C° 0 mm 2 mps 742 mmHg 80%
    21:00 +12°C° 0 mm 2 mps 742 mmHg 80%
    22:00 +10°C° 0 mm 2 mps 742 mmHg 81%
    23:00 +10°C° 0 mm 2 mps 742 mmHg 82%

    Tomorrow, 21 October, Saturday

    Time Temperature Precipitation Wind Pressure Humidity
    00:00 +9°C° 0 mm 2 mps 742 mmHg 82%
    01:00 +9°C° 0 mm 2 mps 742 mmHg 83%
    02:00 +9°C° 0 mm 2 mps 742 mmHg 83%
    03:00 +8°C° 0 mm 2 mps 742 mmHg 84%
    04:00 +8°C° 0 mm 2 mps 742 mmHg 85%
    05:00 +8°C° 0 mm 2 mps 742 mmHg 85%
    06:00 +8°C° 0 mm 2 mps 742 mmHg 83%
    07:00 +8°C° 0 mm 2 mps 742 mmHg 81%
    08:00 +9°C° 0 mm 2 mps 742 mmHg 78%
    09:00 +10°C° 0 mm 2 mps 742 mmHg 73%
    10:00 +12°C° 0 mm 2 mps 742 mmHg 68%
    11:00 +14°C° 0 mm 2 mps 742 mmHg 63%
    12:00 +14°C° 0 mm 1 mps 741 mmHg 61%
    13:00 +15°C° 0 mm 1 mps 741 mmHg 59%
    14:00 +16°C° 0 mm 1 mps 741 mmHg 58%
    15:00 +15°C° 0 mm 1 mps 740 mmHg 60%
    16:00 +15°C° 0 mm 1 mps 740 mmHg 62%
    17:00 +14°C° 0 mm 1 mps 739 mmHg 65%
    18:00 +14°C° 0.2 mm 2 mps 739 mmHg 67%
    19:00 +13°C° 0.2 mm 2 mps 739 mmHg 70%
    20:00 +13°C° 0.2 mm 2 mps 739 mmHg 72%
    21:00 +12°C° 0.6 mm 2 mps 739 mmHg 75%
    22:00 +12°C° 0.6 mm 2 mps 739 mmHg 79%
    23:00 +10°C° 0.6 mm 3 mps 739 mmHg 82%

    Day after tomorrow, 22 October, Sunday

    Time Temperature Precipitation Wind Pressure Humidity
    00:00 +10°C° 0.4 mm 3 mps 739 mmHg 83%
    01:00 +9°C° 0.4 mm 3 mps 739 mmHg 84%
    02:00 +8°C° 0.4 mm 4 mps 739 mmHg 85%
    03:00 +7°C° 0.1 mm 4 mps 739 mmHg 84%
    04:00 +7°C° 0.1 mm 4 mps 739 mmHg 84%
    05:00 +6°C° 0.1 mm 4 mps 739 mmHg 83%
    06:00 +6°C° 0 mm 4 mps 740 mmHg 81%
    07:00 +6°C° 0 mm 4 mps 740 mmHg 79%
    08:00 +6°C° 0 mm 4 mps 740 mmHg 77%
    09:00 +7°C° 0 mm 4 mps 741 mmHg 72%
    10:00 +8°C° 0 mm 4 mps 741 mmHg 67%
    11:00 +10°C° 0 mm 3 mps 742 mmHg 62%
    12:00 +11°C° 0 mm 3 mps 742 mmHg 60%
    13:00 +11°C° 0 mm 3 mps 742 mmHg 58%
    14:00 +12°C° 0 mm 3 mps 742 mmHg 56%
    15:00 +11°C° 0 mm 3 mps 742 mmHg 59%
    16:00 +10°C° 0 mm 3 mps 741 mmHg 62%
    17:00 +9°C° 0 mm 2 mps 741 mmHg 65%
    18:00 +8°C° 0 mm 3 mps 742 mmHg 66%
    19:00 +8°C° 0 mm 3 mps 742 mmHg 68%
    20:00 +7°C° 0 mm 3 mps 742 mmHg 69%
    21:00 +7°C° 0 mm 3 mps 742 mmHg 69%
    22:00 +5°C° 0 mm 3 mps 742 mmHg 68%
    23:00 +5°C° 0 mm 3 mps 742 mmHg 68%

    23 October, Monday

    Time Temperature Precipitation Wind Pressure Humidity
    00:00 +5°C° 0 mm 3 mps 742 mmHg 69%
    01:00 +5°C° 0 mm 3 mps 742 mmHg 69%
    02:00 +4°C° 0 mm 3 mps 741 mmHg 69%
    03:00 +4°C° 0 mm 3 mps 741 mmHg 70%
    04:00 +4°C° 0 mm 3 mps 741 mmHg 70%
    05:00 +4°C° 0 mm 3 mps 740 mmHg 70%
    06:00 +4°C° 0 mm 4 mps 740 mmHg 70%
    07:00 +5°C° 0 mm 4 mps 740 mmHg 69%
    08:00 +5°C° 0 mm 5 mps 740 mmHg 69%
    09:00 +6°C° 0 mm 5 mps 740 mmHg 69%
    10:00 +7°C° 0 mm 5 mps 740 mmHg 69%
    11:00 +8°C° 0 mm 6 mps 740 mmHg 70%
    12:00 +8°C° 0.1 mm 6 mps 739 mmHg 71%
    13:00 +8°C° 0.1 mm 6 mps 739 mmHg 71%
    14:00 +7°C° 0.1 mm 6 mps 739 mmHg 72%
    15:00 +7°C° 0.4 mm 6 mps 738 mmHg 73%
    16:00 +7°C° 0.4 mm 6 mps 738 mmHg 74%
    17:00 +5°C° 0.4 mm 6 mps 738 mmHg 74%
    18:00 +5°C° 0.4 mm 6 mps 738 mmHg 74%
    19:00 +5°C° 0.4 mm 6 mps 738 mmHg 73%
    20:00 +5°C° 0.4 mm 6 mps 738 mmHg 73%
    21:00 +5°C° 1.1 mm 6 mps 738 mmHg 75%
    22:00 +4°C° 1.1 mm 6 mps 738 mmHg 76%
    23:00 +4°C° 1.1 mm 6 mps 738 mmHg 78%

    24 October, Tuesday

    Time Temperature Precipitation Wind Pressure Humidity
    00:00 +4°C° 1.2 mm 6 mps 738 mmHg 77%
    01:00 +4°C° 1.2 mm 6 mps 738 mmHg 76%
    02:00 +4°C° 1.2 mm 7 mps 738 mmHg 75%
    03:00 +3°C° 1.1 mm 6 mps 738 mmHg 75%
    04:00 +3°C° 1.1 mm 6 mps 738 mmHg 76%
    05:00 +3°C° 1.1 mm 6 mps 738 mmHg 76%
    06:00 +3°C° 0.5 mm 6 mps 739 mmHg 76%
    07:00 +3°C° 0.5 mm 6 mps 739 mmHg 75%
    08:00 +3°C° 0.5 mm 6 mps 739 mmHg 75%
    09:00 +4°C° 0.3 mm 6 mps 740 mmHg 73%
    10:00 +4°C° 0.3 mm 6 mps 740 mmHg 71%
    11:00 +5°C° 0.3 mm 6 mps 740 mmHg 69%
    12:00 +6°C° 0.1 mm 5 mps 741 mmHg 67%
    13:00 +6°C° 0.1 mm 5 mps 741 mmHg 66%
    14:00 +7°C° 0.1 mm 5 mps 741 mmHg 64%
    15:00 +7°C° 0.2 mm 5 mps 741 mmHg 65%
    16:00 +7°C° 0.2 mm 4 mps 742 mmHg 66%
    17:00 +6°C° 0.2 mm 4 mps 742 mmHg 67%
    18:00 +6°C° 0.1 mm 4 mps 743 mmHg 65%
    19:00 +6°C° 0.1 mm 4 mps 743 mmHg 64%
    20:00 +6°C° 0.1 mm 4 mps 744 mmHg 63%
    21:00 +6°C° 0 mm 4 mps 744 mmHg 63%
    22:00 +5°C° 0 mm 4 mps 744 mmHg 62%
    23:00 +5°C° 0 mm 4 mps 745 mmHg 62%

    25 October, Wednesday

    Time Temperature Precipitation Wind Pressure Humidity
    00:00 +5°C° 0 mm 4 mps 745 mmHg 62%
    01:00 +5°C° 0 mm 4 mps 745 mmHg 62%
    02:00 +4°C° 0 mm 4 mps 746 mmHg 61%
    03:00 +4°C° 0.1 mm 4 mps 746 mmHg 62%
    04:00 +4°C° 0.1 mm 4 mps 746 mmHg 63%
    05:00 +3°C° 0.1 mm 4 mps 747 mmHg 64%
    06:00 +3°C° 0.1 mm 4 mps 747 mmHg 65%
    07:00 +3°C° 0.1 mm 4 mps 747 mmHg 66%
    08:00 +3°C° 0.1 mm 4 mps 748 mmHg 66%
    09:00 +4°C° 0 mm 4 mps 748 mmHg 64%
    10:00 +5°C° 0 mm 4 mps 748 mmHg 62%
    11:00 +5°C° 0 mm 3 mps 748 mmHg 60%
    12:00 +6°C° 0 mm 4 mps 748 mmHg 60%
    13:00 +6°C° 0 mm 4 mps 748 mmHg 59%
    14:00 +7°C° 0 mm 4 mps 748 mmHg 58%
    15:00 +7°C° 0 mm 3 mps 748 mmHg 61%
    16:00 +7°C° 0 mm 3 mps 748 mmHg 64%
    17:00 +5°C° 0 mm 3 mps 748 mmHg 67%
    18:00 +4°C° 0 mm 3 mps 748 mmHg 69%
    19:00 +5°C° 0 mm 2 mps 749 mmHg 70%
    20:00 +4°C° 0 mm 2 mps 749 mmHg 71%
    21:00 +4°C° 0 mm 2 mps 749 mmHg 71%
    22:00 +4°C° 0 mm 2 mps 749 mmHg 71%
    23:00 +3°C° 0 mm 2 mps 749 mmHg 71%
    Show more